Big Rapids, MI

11:28 AM EST on December 07, 2016 (GMT -0500)
Roben-Hood

Weather History for KRQB - March, 2014

Change the Weather History Date:

Friday, March 21, 2014

  Actual Average Record
Temperature  
Mean Temperature 26 °F -  
Max Temperature 37 °F 41 °F 83 °F (2012)
Min Temperature 15 °F 22 °F 1 °F (1999)
Degree Days  
Heating Degree Days 39    
Moisture  
Dew Point 21 °F    
Average Humidity 77    
Maximum Humidity 100    
Minimum Humidity 52    
Precipitation  
Precipitation 0.10 in - - ()
Sea Level Pressure  
Sea Level Pressure 29.93 in    
Wind  
Wind Speed 3 mph (SE)    
Max Wind Speed 18 mph    
Max Gust Speed 22 mph    
Visibility 9 miles    
Events Snow    
Averages and records for this station are not official NWS values.
T = Trace of Precipitation, MM = Missing Value Source: NWS Daily Summary

Daily Weather History Graph

Daily Weather History Graph

Search for Another Location

Airport or City:

Trip Planner

Search our weather history database for the weather conditions in past years. The results will help you decide how hot, cold, wet, or windy it might be!

Date:

Astronomy

Mar. 21, 2014 Rise Set
Actual Time 7:43 AM EDT 7:55 PM EDT
Civil Twilight 7:14 AM EDT 8:24 PM EDT
Nautical Twilight 6:41 AM EDT 8:57 PM EDT
Astronomical Twilight 6:06 AM EDT 9:32 PM EDT
Moon 12:21 AM EDT (3/21) 10:26 AM EDT (3/21)
Length of Visible Light 13h 09m
Length of Day
12h 12m
Waning Gibbous, 75% of the Moon is Illuminated
Mar 21
Waning Gibbous
Mar 23
Last Quarter
Mar 30
New
Apr 7
First Quarter
Apr 15
Full

Hourly Weather History & Observations

Time (EDT) Temp. Windchill Dew Point Humidity Pressure Visibility Wind Dir Wind Speed Gust Speed Precip Events Conditions
12:14 AM 23.5 °F - 18.0 °F 79% 30.02 in 10.0 mi Calm Calm - N/A   Clear
12:35 AM 22.5 °F 17.8 °F 17.4 °F 81% 30.03 in 10.0 mi West 3.5 mph - N/A   Clear
12:55 AM 22.5 °F - 17.6 °F 82% 30.03 in 10.0 mi Calm Calm - N/A   Clear
1:14 AM 22.1 °F - 17.4 °F 82% 30.03 in 10.0 mi Calm Calm - N/A   Clear
1:35 AM 21.6 °F - 17.4 °F 84% 30.03 in 10.0 mi Calm Calm - N/A   Clear
1:55 AM 20.8 °F - 16.9 °F 85% 30.03 in 10.0 mi Calm Calm - N/A   Clear
2:14 AM 19.6 °F - 16.3 °F 87% 30.03 in 10.0 mi Calm Calm - N/A   Clear
2:35 AM 19.2 °F - 16.5 °F 89% 30.03 in 10.0 mi Calm Calm - N/A   Clear
2:55 AM 20.5 °F - 17.4 °F 88% 30.03 in 10.0 mi Calm Calm - N/A   Clear
3:14 AM 20.1 °F - 16.5 °F 86% 30.02 in 10.0 mi Calm Calm - N/A   Clear
3:35 AM 18.9 °F - 16.3 °F 90% 30.02 in 10.0 mi Calm Calm - N/A   Clear
3:55 AM 19.4 °F - 16.3 °F 88% 30.02 in 10.0 mi Calm Calm - N/A   Clear
4:14 AM 17.4 °F - 15.4 °F 92% 30.02 in 10.0 mi Calm Calm - N/A   Clear
4:35 AM 17.6 °F - 17.2 °F 98% 30.02 in 10.0 mi Calm Calm - N/A   Clear
4:55 AM 18.1 °F - 15.6 °F 90% 30.01 in 10.0 mi Calm Calm - N/A   Clear
5:14 AM 18.0 °F - 15.6 °F 91% 30.01 in 10.0 mi Calm Calm - N/A   Clear
5:35 AM 17.6 °F - 15.8 °F 93% 30.01 in 10.0 mi Calm Calm - N/A   Clear
5:55 AM 17.4 °F - 17.1 °F 98% 30.01 in 10.0 mi Calm Calm - N/A   Clear
6:14 AM 18.0 °F - 16.3 °F 93% 30.02 in 10.0 mi Calm Calm - N/A   Clear
6:35 AM 17.8 °F - 15.4 °F 91% 30.02 in 10.0 mi Calm Calm - N/A   Clear
6:54 AM 16.5 °F - 16.0 °F 98% 30.01 in 10.0 mi Calm Calm - N/A   Clear
7:14 AM 16.3 °F - 15.8 °F 98% 30.01 in 10.0 mi Calm Calm - N/A   Scattered Clouds
7:35 AM 16.5 °F - 14.9 °F 93% 30.03 in 10.0 mi Calm Calm - N/A   Clear
7:55 AM 15.1 °F - 13.1 °F 92% 30.02 in 10.0 mi Calm Calm - N/A   Clear
8:15 AM 16.3 °F - 14.2 °F 91% 30.02 in 10.0 mi Calm Calm - N/A   Clear
8:35 AM 17.8 °F - 15.3 °F 90% 30.02 in 10.0 mi Calm Calm - N/A   Clear
8:54 AM 19.2 °F - 16.0 °F 87% 30.02 in 10.0 mi Calm Calm - N/A   Clear
9:15 AM 19.6 °F - 16.5 °F 88% 30.01 in 10.0 mi Calm Calm - N/A   Clear
9:35 AM 20.8 °F 16.0 °F 17.6 °F 87% 30.01 in 10.0 mi South 3.5 mph - N/A   Clear
9:55 AM 23.2 °F - 18.5 °F 82% 30.01 in 10.0 mi Calm Calm - N/A   Clear
10:14 AM 25.3 °F - 19.2 °F 78% 30.02 in 10.0 mi Calm Calm - N/A   Clear
10:35 AM 29.3 °F - 20.3 °F 69% 30.02 in 10.0 mi Calm Calm - N/A   Clear
10:55 AM 32.2 °F 27.7 °F 20.3 °F 62% 30.02 in 10.0 mi South 4.6 mph - N/A   Clear
11:14 AM 33.1 °F 26.1 °F 19.4 °F 57% 30.02 in 10.0 mi South 8.1 mph - N/A   Clear
11:35 AM 33.4 °F 26.6 °F 19.8 °F 57% 30.01 in 10.0 mi SSE 8.1 mph - N/A   Clear
11:55 AM 34.2 °F 27.5 °F 19.4 °F 55% 30.02 in 10.0 mi SSE 8.1 mph - N/A   Clear
12:14 PM 34.7 °F 29.6 °F 19.6 °F 54% 30.01 in 10.0 mi SSE 5.8 mph - N/A   Clear
12:35 PM 35.4 °F 32.6 °F 21.2 °F 56% 29.99 in 10.0 mi ESE 3.5 mph - N/A   Clear
12:55 PM 35.8 °F 28.8 °F 21.2 °F 55% 29.98 in 10.0 mi ESE 9.2 mph - N/A   Clear
1:14 PM 35.8 °F 28.3 °F 21.0 °F 55% 29.97 in 10.0 mi ESE 10.4 mph - N/A   Clear
1:35 PM 36.1 °F 28.7 °F 20.7 °F 53% 29.96 in 10.0 mi ESE 10.4 mph - N/A   Clear
1:55 PM 36.5 °F 28.2 °F 20.7 °F 53% 29.96 in 10.0 mi SSE 12.7 mph 18.4 mph N/A   Clear
2:14 PM 36.5 °F 27.4 °F 20.7 °F 53% 29.95 in 10.0 mi SE 15.0 mph - N/A   Clear
2:35 PM 36.9 °F 28.7 °F 21.2 °F 53% 29.94 in 10.0 mi South 12.7 mph - N/A   Clear
2:55 PM 37.0 °F 29.3 °F 20.8 °F 52% 29.93 in 10.0 mi SSE 11.5 mph 17.3 mph N/A   Clear
3:14 PM 36.5 °F 28.7 °F 21.2 °F 54% 29.90 in 10.0 mi SSE 11.5 mph 18.4 mph N/A   Clear
3:35 PM 36.7 °F 27.2 °F 22.5 °F 56% 29.88 in 10.0 mi SE 16.1 mph - N/A   Scattered Clouds
3:54 PM 36.5 °F 27.4 °F 22.3 °F 56% 29.86 in 10.0 mi ESE 15.0 mph 19.6 mph N/A   Scattered Clouds
4:15 PM 36.7 °F 27.6 °F 21.9 °F 55% 29.84 in 10.0 mi SE 15.0 mph - N/A   Clear
4:35 PM 36.5 °F 26.3 °F 22.8 °F 58% 29.82 in 10.0 mi SE 18.4 mph 21.9 mph N/A   Clear
4:54 PM 36.5 °F 27.0 °F 23.4 °F 59% 29.81 in 10.0 mi SE 16.1 mph 19.6 mph N/A   Clear
5:15 PM 37.2 °F 29.1 °F 22.5 °F 55% 29.84 in 10.0 mi SE 12.7 mph - N/A   Scattered Clouds
5:35 PM 36.9 °F 28.7 °F 23.0 °F 57% 29.83 in 10.0 mi SE 12.7 mph - N/A   Scattered Clouds
5:54 PM 36.7 °F 28.9 °F 24.1 °F 60% 29.81 in 10.0 mi SE 11.5 mph 16.1 mph N/A   Scattered Clouds
6:15 PM 36.7 °F 28.4 °F 23.4 °F 59% 29.83 in 10.0 mi SSE 12.7 mph - N/A   Mostly Cloudy
6:35 PM 36.1 °F 27.7 °F 25.2 °F 64% 29.82 in 10.0 mi SE 12.7 mph 18.4 mph N/A   Overcast
6:54 PM 36.0 °F 29.6 °F 25.2 °F 65% 29.82 in 10.0 mi SE 8.1 mph - N/A   Overcast
7:15 PM 36.1 °F 30.6 °F 24.8 °F 63% 29.80 in 10.0 mi ESE 6.9 mph - N/A   Overcast
7:35 PM 36.0 °F 30.3 °F 24.8 °F 64% 29.79 in 10.0 mi ESE 6.9 mph - N/A   Overcast
7:54 PM 36.0 °F 29.6 °F 25.2 °F 65% 29.79 in 10.0 mi ESE 8.1 mph - N/A   Overcast
8:15 PM 35.6 °F 29.9 °F 25.9 °F 68% 29.77 in 10.0 mi ESE 6.9 mph - N/A   Overcast
8:35 PM 33.8 °F 27.7 °F 28.4 °F 81% 29.76 in 0.5 mi ESE 6.9 mph - N/A Snow Snow
8:54 PM 32.7 °F 26.4 °F 30.7 °F 92% 29.75 in 0.8 mi SE 6.9 mph - N/A Snow Light Snow
9:15 PM 32.0 °F 26.4 °F 32.0 °F 100% 29.74 in 0.5 mi East 5.8 mph - 0.03 in Snow Snow
9:35 PM 32.0 °F 25.6 °F 32.0 °F 100% 29.74 in 0.8 mi ESE 6.9 mph - 0.05 in Snow Snow
9:54 PM 32.0 °F 25.6 °F 32.0 °F 100% 29.74 in 0.8 mi SE 6.9 mph - 0.08 in Snow Snow
10:15 PM 32.2 °F 25.0 °F 32.2 °F 100% 29.72 in 1.2 mi SE 8.1 mph - 0.01 in Snow Light Snow
10:35 PM 32.4 °F 26.0 °F 32.4 °F 100% 29.72 in 4.0 mi SE 6.9 mph - 0.01 in Snow Light Snow
10:54 PM 32.9 °F 28.5 °F 32.9 °F 100% 29.70 in 5.0 mi ESE 4.6 mph - 0.01 in   Overcast
11:15 PM 32.9 °F 26.7 °F 32.9 °F 100% 29.72 in 3.0 mi NNW 6.9 mph - N/A Snow Light Snow
11:35 PM 32.9 °F 28.5 °F 32.9 °F 100% 29.72 in 3.0 mi North 4.6 mph - 0.01 in Snow Light Snow
11:54 PM 32.5 °F 28.1 °F 32.5 °F 100% 29.72 in 4.0 mi NE 4.6 mph - 0.01 in   Overcast